This site uses a module created by best online poker sites.

BSB jail roster for December 18, 2017

Print
"12/15/2017","00:10","217CR0032199","T/S","T/S","MT CON RD","",""
"12/15/2017","00:10","217CR0032200","SUSPICIOUS ACTIVITY","SUSPICIOUS ACTIVITY","MT CON","",""
"12/15/2017","00:25","217CR0032201","ANIMAL COMPLAINT","ANIMAL COMPLAINT","189 TRINITY LOOP","",""
"12/15/2017","00:51","217CR0032202","T/S","T/S","MAIN AND ALUMINUM","",""
"12/15/2017","01:02","217CR0032203","SUSPICIOUS ACTIVITY","SUSPICIOUS ACTIVITY","1370 HARRISON","",""
"12/15/2017","01:55","217CR0032204","ASSAULT","ASSAULT","************","",""
"12/15/2017","01:59","217CR0032205","PARKING COMPLAINT","PARKING COMPLAINT","9 W PARK","",""
"12/15/2017","02:33","217CR0032206","SUSPICIOUS ACTIVITY","SUSPICIOUS ACTIVITY","631 S UTAH","",""
"12/15/2017","03:47","217CR0032207","CITIZEN AID","CITIZEN AID","PARK AND MAIN","",""
"12/15/2017","04:18","217CR0032208","UNWANTED PERSON","PROTECTIVE CUSTODY","400 S CLARK","",""
"12/15/2017","04:46","217CR0032209","MEDICAL - EMERGENCY","MEDICAL - EMERGENCY","1726 LOWELL","",""
"12/15/2017","06:49","217CR0032210","STOLEN VEHICLE","MOTOR VEHICLE THEFT","2941 HANSEN RD","",""
"12/15/2017","07:05","217CR0032211","VANDALISM/CRIMINAL MISCHIEF","VANDALISM/CRIMINAL MISCHIEF","225 N ALASKA","",""
"12/15/2017","07:08","217CR0032212","SUSPICIOUS ACTIVITY","SUSPICIOUS ACTIVITY","PARK AND MAIN","",""
"12/15/2017","07:45","217CR0032213","DETENTION BUSINESS","DETENTION BUSINESS","************","",""
"12/15/2017","07:58","217CR0032214","CIVIL PAPER SERVICE","CIVIL PAPER SERVICE","119070 JUNIPER ACREA RD","",""
"12/15/2017","08:00","217CR0032215","ASSIST OTHER AGENCY","ASSIST OTHER AGENCY","246 E MERCURY","",""
"12/15/2017","08:02","217CR0032216","CIVIL PAPER SERVICE","CIVIL PAPER SERVICE","664 TRAVONIA","",""
"12/15/2017","08:06","217CR0032217","WELFARE CHECK","WELFARE CHECK","532 EDISON ST","",""
"12/15/2017","08:21","217CR0032218","CIVIL PAPER SERVICE","CIVIL PAPER SERVICE","116189 BUXTON RD","",""
"12/15/2017","08:21","217CR0032219","CIVIL PAPER SERVICE","CIVIL PAPER SERVICE","412 W MERCURY","",""
"12/15/2017","08:22","217CR0032220","CIVIL PAPER SERVICE","CIVIL PAPER SERVICE","209 S CRYSTAL ST","",""
"12/15/2017","08:34","217CR0032221","CIVIL PAPER SERVICE","CIVIL PAPER SERVICE","111 W BROADWAY","",""
"12/15/2017","08:41","217CR0032222","LED BUSINESS","LED BUSINESS","155 W QUARTZ","",""
"12/15/2017","08:56","217CR0032223","CIVIL PAPER SERVICE","CIVIL PAPER SERVICE","3521 S WARREN","",""
"12/15/2017","08:57","217CR0032224","ALARM - BURGLARY","ALARM - BURGLARY","************","",""
"12/15/2017","09:05","217CR0032225","CIVIL PAPER SERVICE","CIVIL PAPER SERVICE","400 E PARK","",""
"12/15/2017","09:39","217CR0032226","ACCIDENT","ACCIDENT","2521 NETTIE","",""
"12/15/2017","10:05","217CR0032227","THEFT","THEFT","45 THREE BEARS WAY 3 BEARS ALA","",""
"12/15/2017","10:11","217CR0032228","ACCIDENT","ACCIDENT","FARRAGUT AND YALE","",""
"12/15/2017","10:19","217CR0032229","SUSPICIOUS ACTIVITY","SUSPICIOUS ACTIVITY","2132 JOHNS","",""
"12/15/2017","10:19","217CR0032230","THEFT","THEFT","500 S MAIN #B","",""
"12/15/2017","10:58","217CR0032231","PARKING COMPLAINT","PARKING COMPLAINT","1810 MEADOW LARK LANE","",""
"12/15/2017","11:13","217CR0032232","DRUGS","POSSESS DRUG PARAPHERNALIA","401 S WYOMING","ARREST(s) MADE",""
"12/15/2017","12:10","217CR0032234","T/S","T/S","SHIELDS AND TEXAS","",""
"12/15/2017","12:13","217CR0032235","PRIVACY IN COMMUNICATIONS","PRIVACY IN COMMUNICATIONS","************","",""
"12/15/2017","12:19","217CR0032236","CHILD ABUSE","CHILD ABUSE","************","",""
"12/15/2017","13:10","217CR0032237","MEDICAL - EMERGENCY","MEDICAL - EMERGENCY","1305 DRIGGS","",""
"12/15/2017","13:17","217CR0032238","JUVENILE MISC","JUVENILE MISC","************","",""
"12/15/2017","13:32","217CR0032239","MEDICAL - EMERGENCY","MEDICAL - EMERGENCY","155 W GRANITE ST","",""
"12/15/2017","13:40","217CR0032240","JUVENILE MISC","JUVENILE MISC","************","",""
"12/15/2017","13:55","217CR0032241","VEHICLE INSPECTION","VEHICLE INSPECTION","225 N ALASKA","",""
"12/15/2017","13:58","217CR0032242","ALL OTHER","ALL OTHER","MONTANA ST AND SECOND","",""
"12/15/2017","14:14","217CR0032244","THEFT","THEFT, ALL OTHERS","606 ALPINE RD","",""
"12/15/2017","14:15","217CR0032243","THEFT","THEFT","1408 SILVER BOW HOMES","",""
"12/15/2017","14:16","217CR0032246","UNWANTED PERSON","UNWANTED PERSON","************","",""
"12/15/2017","14:17","217CR0032245","ALL OTHER","ALL OTHER","S ROCKER RD AND SANTA CLAUSE","",""
"12/15/2017","14:19","217CR0032247","ALARM - BURGLARY","ALARM - BURGLARY","************","",""
"12/15/2017","14:47","217CR0032248","STOLEN VEHICLE","STOLEN VEHICLE","907 DELAWARE AVE","",""
"12/15/2017","14:48","217CR0032249","INTOXICATED PERSON","INTOXICATED PERSON","1324 HARRISON AVE","",""
"12/15/2017","14:52","217CR0032250","THEFT","THEFT","1301 E SECOND ST","",""
"12/15/2017","14:56","217CR0032251","THEFT","THEFT FROM MOTOR VEHICLE","520 COBBAN ST","ARREST(s) MADE",""
"12/15/2017","15:04","217CR0032252","MEDICAL - EMERGENCY","MEDICAL - EMERGENCY","100 GARDENS WAY APT 118","",""
"12/15/2017","15:18","217CR0032253","VEHICLE INSPECTION","VEHICLE INSPECTION","225 N ALASKA","",""
"12/15/2017","15:38","217CR0032254","TRAFFIC","TRAFFIC","IDAHO ST AND PORPHYRY ST","",""
"12/15/2017","15:39","217CR0032255","DISTURBANCE","CRIMINAL MISCHIEF","2026 S ARIZONA","ARREST(s) MADE",""
"12/15/2017","15:45","217CR0032256","T/S","T/S @ PORPHYRY ST AND MONTANA ST","PORPHYRY ST AND MONTANA ST","",""
"12/15/2017","15:56","217CR0032257","SUSPICIOUS ACTIVITY","SUSPICIOUS ACTIVITY","4820 S UTAH","",""
"12/15/2017","16:03","217CR0032259","ACCIDENT","ACCIDENT","AMHERST ST AND HARRISON AVE","",""
"12/15/2017","16:03","217CR0032258","UNWANTED PERSON","UNWANTED PERSON","************","",""
"12/15/2017","16:13","217CR0032260","TRAFFIC","TRAFFIC","1324 HARRISON","",""
"12/15/2017","16:28","217CR0032261","ALL OTHER","ALL OTHER","910 S MONTANA ST","",""
"12/15/2017","16:34","217CR0032262","SUSPICIOUS ACTIVITY","SUSPICIOUS ACTIVITY","701 DEWEY BLVD","",""
"12/15/2017","16:42","217CR0032263","WELFARE CHECK","WELFARE CHECK","1325 W GRANITE","",""
"12/15/2017","16:42","217CR0032264","WANTED PERSON","CRIMINAL CONTEMPT","GOODWILL STORE 3703 HARRISON","ARREST(s) MADE",""
"12/15/2017","17:07","217CR0032265","T/S","T/S","SHEILDS AND HOWARD","",""
"12/15/2017","17:11","217CR0032266","SUSPICIOUS ACTIVITY","DISORDERLY CONDUCT","60 W GALENA","ARREST(s) MADE",""
"12/15/2017","17:11","217CR0032267","DISTURBANCE","DISORDERLY CONDUCT","509 NORTH ST","",""
"12/15/2017","17:16","217CR0032268","UNWANTED PERSON","UNWANTED PERSON","************","",""
"12/15/2017","17:32","217CR0032269","ALL OTHER","ALL OTHER","1145 TAFT","",""
"12/15/2017","17:54","217CR0032270","ACCIDENT - INJURY","ACCIDENT - INJURY","315 S EXCELSIOR","",""
"12/15/2017","18:08","217CR0032271","LED BUSINESS","LED BUSINESS","155 W QUARTZ","",""
"12/15/2017","18:34","217CR0032272","SUSPICIOUS ACTIVITY","SUSPICIOUS ACTIVITY","225 N ALASKA","",""
"12/15/2017","18:38","217CR0032273","THEFT","THEFT, ALL OTHERS","2940 GOODWIN","",""
"12/15/2017","18:47","217CR0032274","THEFT","THEFT, ALL OTHERS","52 WATHENA DR","",""
"12/15/2017","18:47","217CR0032275","THEFT","THEFT","1503 E LYNDALE LN","",""
"12/15/2017","19:01","217CR0032276","THEFT","THEFT","2500 MASSACHUSETTS AVE","",""
"12/15/2017","19:37","217CR0032277","THEFT","THEFT","2222 WALL ST","",""
"12/15/2017","20:23","217CR0032278","BURGLARY","BURGLARY, RESIDENCE","3945 S ARIZONA","",""
"12/15/2017","20:36","217CR0032279","UNWANTED PERSON","UNWANTED PERSON","************","",""
"12/15/2017","20:43","217CR0032280","ACCIDENT - INJURY","DUI - (REFUSAL)","PAXSON AND LONGFELLOW","ARREST(s) MADE",""
"12/15/2017","21:13","217CR0032281","LED BUSINESS","LED BUSINESS","400 S CLARK","",""
"12/15/2017","21:25","217CR0032282","FIRE - OTHER","FIRE - OTHER","2918 YALE","",""
"12/15/2017","21:36","217CR0032283","MEDICAL - EMERGENCY","MEDICAL - EMERGENCY","1408 SILVERBOW HOMES","",""
"12/15/2017","21:43","217CR0032284","THEFT","THEFT, SHOPLIFT","3901 HARRISON AVE","ARREST(s) MADE",""
"12/15/2017","22:06","217CR0032286","THEFT","THEFT","2955 BUSCH","",""
"12/15/2017","22:09","217CR0032285","ACCIDENT","ACCIDENT","4700 BLOCK HARRISON AVE","",""
"12/15/2017","22:30","217CR0032287","SUSPICIOUS ACTIVITY","SUSPICIOUS ACTIVITY","1125 S MAIN ST","",""
"12/15/2017","22:37","217CR0032288","MEDICAL - EMERGENCY","MEDICAL - EMERGENCY","60 W GALENA","",""
"12/15/2017","22:55","217CR0032289","SUSPICIOUS ACTIVITY","SUSPICIOUS ACTIVITY","8 W FRONT ST","",""
"12/15/2017","23:01","217CR0032290","ACCIDENT","CRIMINAL ENDANGERMENT","HARRISON AND SUNSET","ARREST(s) MADE",""
"12/15/2017","23:10","217CR0032291","T/S","T/S","HARRISON AVE AND DEWEY BLVD","",""
"12/15/2017","23:49","217CR0032292","FIRE- GAS ODOR","FIRE- GAS ODOR","25 AMERICAN DRIVE","",""
"12/15/2017","23:54","217CR0032293","T/S","T/S","DEWEY AND HILL","",""
"12/16/2017","00:00","217CR0032294","MEDICAL - EMERGENCY","MEDICAL - EMERGENCY","1701 SILVERBOW HOMES","",""
"12/16/2017","00:01","217CR0032295","DISTURBANCE","DISTURBANCE","60 E BROADWAY ST/ACOMA","",""
"12/16/2017","00:11","217CR0032296","SUSPICIOUS ACTIVITY","SUSPICIOUS ACTIVITY","633 1/2 S MONTANA","",""
"12/16/2017","00:24","217CR0032297","SUSPICIOUS ACTIVITY","SUSPICIOUS ACTIVITY","100 E BROADWAY ST","",""
"12/16/2017","00:41","217CR0032298","WELFARE CHECK","WELFARE CHECK","GILMAN ST AND HARRISON AVE","",""
"12/16/2017","00:56","217CR0032299","T/S","T/S","","",""
"12/16/2017","00:57","217CR0032300","SUSPICIOUS ACTIVITY","SUSPICIOUS ACTIVITY","DEWEY AND ROWE RD","",""
"12/16/2017","01:26","217CR0032301","SUSPICIOUS ACTIVITY","SUSPICIOUS ACTIVITY","2929 HARRISON AVE","",""
"12/16/2017","01:58","217CR0032302","DISTURBANCE","DISTURBANCE","2 E GALENA","",""
"12/16/2017","02:10","217CR0032303","SUSPICIOUS ACTIVITY","SUSPICIOUS ACTIVITY","1515 OREGON APT 802","",""
"12/16/2017","02:28","217CR0032304","T/S","T/S","HARRISON AND GEORGE","",""
"12/16/2017","02:29","217CR0032305","MEDICAL - EMERGENCY","MEDICAL - EMERGENCY","2520 AMHERST","",""
"12/16/2017","02:54","217CR0032306","WANTED PERSON","WANTED PERSON","************","",""
"12/16/2017","03:00","217CR0032307","SUSPICIOUS ACTIVITY","SUSPICIOUS ACTIVITY","FATHER SHEEHAN PARK","",""
"12/16/2017","03:07","217CR0032308","ALARM - MEDICAL","ALARM - MEDICAL","************","",""
"12/16/2017","03:19","217CR0032309","SUSPICIOUS ACTIVITY","SUSPICIOUS ACTIVITY","2310 COBBAN","",""
"12/16/2017","03:46","217CR0032310","MEDICAL - EMERGENCY","MEDICAL - EMERGENCY","24 E COPPER ST","",""
"12/16/2017","04:12","217CR0032311","MEDICAL - EMERGENCY","MEDICAL - EMERGENCY","1726 LOWELL","",""
"12/16/2017","05:22","217CR0032312","T/S","T/S @ SILVER ST AND EXCELSIOR AVE","SILVER ST AND EXCELSIOR AVE","",""
"12/16/2017","06:00","217CR0032313","MEDICAL - EMERGENCY","MEDICAL - EMERGENCY","25 E GRANITE APT 1 1/2","",""
"12/16/2017","06:24","217CR0032314","SUSPICIOUS ACTIVITY","SUSPICIOUS ACTIVITY","1300 BLK E SECOND","",""
"12/16/2017","06:49","217CR0032315","MEDICAL - EMERGENCY","MEDICAL - EMERGENCY","3940 GLADSTONE AVE","",""
"12/16/2017","06:50","217CR0032316","T/S","T/S","LEXINGTON AND EVANS","",""
"12/16/2017","06:57","217CR0032317","T/S","T/S","GRAND AND GARFIELD","",""
"12/16/2017","07:16","217CR0032318","SUSPICIOUS ACTIVITY","SUSPICIOUS ACTIVITY","40 SPORTSMAN WAY","",""
"12/16/2017","08:06","217CR0032319","THEFT","THEFT, ALL OTHERS","1255 WEST SIDE BLVD","",""
"12/16/2017","08:10","217CR0032320","SUSPICIOUS ACTIVITY","SUSPICIOUS ACTIVITY","GOLD AND MONTANA","",""
"12/16/2017","08:37","217CR0032321","HIT AND RUN","H&R INJ OR DEATH /NON INJ/PROP","300 BLK S ARIZONA","",""
"12/16/2017","08:53","217CR0032322","ATL","DRIVE WHILE SUSP. OR REVOKED","MAIN AND SECOND","ARREST(s) MADE",""
"12/16/2017","09:37","217CR0032323","ACCIDENT","ACCIDENT","225 N ALASKA","",""
"12/16/2017","10:22","217CR0032324","ALARM - BURGLARY","ALARM - BURGLARY","************","",""
"12/16/2017","10:34","217CR0032325","ALARM - BURGLARY","ALARM - BURGLARY","************","",""
"12/16/2017","11:59","217CR0032326","VANDALISM/CRIMINAL MISCHIEF","CRIMINAL MISCHIEF","403 W MERCURY","",""
"12/16/2017","12:09","217CR0032327","WANTED PERSON","CRIMINAL CONTEMPT","155 W QUARTZ","ARREST(s) MADE",""
"12/16/2017","12:12","217CR0032328","SUSPICIOUS ACTIVITY","SUSPICIOUS ACTIVITY","1246 BRITANIA","",""
"12/16/2017","12:18","217CR0032329","DISTURBANCE","DISTURBANCE","6 E SECOND","",""
"12/16/2017","12:41","217CR0032330","DISTURBANCE","DISTURBANCE","400 S CLARK ST","",""
"12/16/2017","12:43","217CR0032331","SUSPICIOUS ACTIVITY","FAILURE TO DISPERSE","301 S ARIZONA ST","ARREST(s) MADE",""
"12/16/2017","12:47","217CR0032332","THEFT","THEFT, ALL OTHERS","60 E BROADWAY","",""
"12/16/2017","12:54","217CR0032333","MEDICAL - EMERGENCY","MEDICAL - EMERGENCY","207 W PARK","",""
"12/16/2017","12:56","217CR0032335","HARASSMENT","HARASSMENT","1606 DEWEY BLVD","",""
"12/16/2017","12:57","217CR0032334","THEFT","THEFT","1504 GILMAN AVE","",""
"12/16/2017","13:13","217CR0032336","UNWANTED PERSON","UNWANTED PERSON","************","",""
"12/16/2017","13:20","217CR0032337","ALARM - BURGLARY","ALARM - BURGLARY","************","",""
"12/16/2017","13:23","217CR0032338","TRAFFIC","TRAFFIC","CLARK AND GALENA","",""
"12/16/2017","13:25","217CR0032339","SUICIDE ATTEMPT/THREAT","SUICIDE ATTEMPT/THREAT","************","",""
"12/16/2017","13:26","217CR0032340","UNWANTED PERSON","UNWANTED PERSON","************","",""
"12/16/2017","13:59","217CR0032341","THEFT","CRIMINAL MISCHIEF","1966 NEVADA","",""
"12/16/2017","14:10","217CR0032342","MEDICAL - EMERGENCY","MEDICAL - EMERGENCY","1443 EASY ST","",""
"12/16/2017","14:19","217CR0032343","THEFT","THEFT OF VEHICLE PARTS/ACCESSO","PLAZA MALL","",""
"12/16/2017","14:54","217CR0032344","ACCIDENT","ACCIDENT","4600 HARRISON STAR LANES","",""
"12/16/2017","15:15","217CR0032345","HIT AND RUN","HIT AND RUN","2303 OTTAWA ST","",""
"12/16/2017","15:20","217CR0032346","MEDICAL - EMERGENCY","MEDICAL - EMERGENCY","3002 MAMMOTH","",""
"12/16/2017","15:23","217CR0032347","ACCIDENT","ACCIDENT","COBBAN AND HARRISON AVE","",""
"12/16/2017","15:43","217CR0032348","ACCIDENT","ACCIDENT","PORTER AND YALE","",""
"12/16/2017","15:43","217CR0032349","ANIMAL COMPLAINT-BITE","ANIMAL COMPLAINT-BITE","3232 PLACER ST","",""
"12/16/2017","15:54","217CR0032350","VANDALISM/CRIMINAL MISCHIEF","CRIMINAL MISCHIEF","ARIZONA AND BROADWAY","",""
"12/16/2017","15:58","217CR0032351","ATL","ATL","3901 HARRISON AVE","",""
"12/16/2017","16:09","217CR0032352","ACCIDENT","ACCIDENT","MAIN AND SUNVIEW TERRACE","",""
"12/16/2017","16:10","217CR0032353","SUSPICIOUS ACTIVITY","SUSPICIOUS ACTIVITY","GRANITE AND HAMILTON","",""
"12/16/2017","16:17","217CR0032354","VANDALISM/CRIMINAL MISCHIEF","VANDALISM/CRIMINAL MISCHIEF","2606 PHILLIPS ST","",""
"12/16/2017","16:45","217CR0032355","MEDICAL - EMERGENCY","MEDICAL - EMERGENCY","2201 GRAND","",""
"12/16/2017","16:50","217CR0032356","MEDICAL - EMERGENCY","MEDICAL - EMERGENCY","1027 1/2 E FRONT ST","",""
"12/16/2017","17:07","217CR0032357","FOUND PROPERTY","FOUND PROPERTY","************","",""
"12/16/2017","17:16","217CR0032358","ASSIST OTHER AGENCY","ASSIST OTHER AGENCY","I90 MM 215 WB","",""
"12/16/2017","17:16","217CR0032359","T/S","T/S","CONTINENTAL AND GREGSON","",""
"12/16/2017","17:28","217CR0032360","T/S","T/S","SHEILDS AND MERCURY","",""
"12/16/2017","17:45","217CR0032361","CRIMINAL TRESPASS","BURGLARY, NON-RESIDENCE","17 S MAIN ST","ARREST(s) MADE",""
"12/16/2017","17:52","217CR0032363","ATL","ATL","1000 BLK W PORPHYRY","",""
"12/16/2017","17:55","217CR0032362","UNKNOWN PROBLEM","UNKNOWN PROBLEM","1003 MARYLAND","",""
"12/16/2017","18:02","217CR0032364","MEDICAL - EMERGENCY","MEDICAL - EMERGENCY","2511 OTTAWA ST","",""
"12/16/2017","20:34","217CR0032365","SEXUAL ASSAULT","SEXUAL ASSAULT","************","",""
"12/16/2017","20:49","217CR0032366","MEDICAL - ASSIST","MEDICAL - ASSIST","************","",""
"12/16/2017","20:54","217CR0032367","CITIZEN AID","CITIZEN AID","COBBAN ST AND TEXAS AVE","",""
"12/16/2017","21:20","217CR0032368","WELFARE CHECK","WELFARE CHECK","2500 MASSACHUSETTS AVE","",""
"12/16/2017","21:33","217CR0032369","MEDICAL - EMERGENCY","MEDICAL - EMERGENCY","907 SILVER BOW HOMES","",""
"12/16/2017","22:09","217CR0032370","FIRE - OTHER","ARSON","700 BLK MARYLAND","",""
"12/16/2017","22:20","217CR0032371","JUVENILE MISC","JUVENILE MISC","************","",""
"12/16/2017","22:25","217CR0032372","UNKNOWN PROBLEM","UNKNOWN PROBLEM","1839 HARRISON","",""
"12/16/2017","22:32","217CR0032373","ASSAULT","ASSAULT","************","",""
"12/16/2017","22:39","217CR0032374","JUVENILE MISC","JUVENILE MISC","************","",""
"12/16/2017","23:18","217CR0032375","T/S","T/S @ THUNDER ALLEY","THUNDER ALLEY","",""
"12/16/2017","23:19","217CR0032376","VANDALISM/CRIMINAL MISCHIEF","VANDALISM/CRIMINAL MISCHIEF","301 S ARIZONA ST","",""
"12/16/2017","23:29","217CR0032377","T/S","T/S @ MONTANA ST AND ALUMINUM ST","MONTANA ST AND ALUMINUM ST","",""
"12/16/2017","23:34","217CR0032378","T/S","T/S @ MONTANA AND PLATINUM","MONTANA AND PLATINUM","",""
"12/16/2017","23:39","217CR0032379","T/S","T/S @ MONTANA ST AND ALUMINUM ST","MONTANA ST AND ALUMINUM ST","",""
"12/17/2017","00:05","217CR0032380","FIRE - OTHER","FIRE - OTHER","727 MARYLAND","",""
"12/17/2017","00:06","217CR0032381","T/S","T/S @ PARK AND MAIN","PARK AND MAIN","",""
"12/17/2017","00:24","217CR0032382","T/S","T/S @ GRAND AND FLORENCE","GRAND AND FLORENCE","",""
"12/17/2017","00:39","217CR0032383","UNWANTED PERSON","UNWANTED PERSON","************","",""
"12/17/2017","00:49","217CR0032384","T/S","DUI PER SE .08 OR GREATER","HILL AVE AND SCHLEY ST","ARREST(s) MADE",""
"12/17/2017","01:10","217CR0032385","DISTURBANCE-NOISE","DISTURBANCE-NOISE","3214 EDWARDS","",""
"12/17/2017","01:18","217CR0032386","SUSPICIOUS ACTIVITY","SUSPICIOUS ACTIVITY","3525 QUINCY ST","",""
"12/17/2017","01:31","217CR0032387","MEDICAL - ASSIST","MEDICAL - ASSIST","************","",""
"12/17/2017","01:46","217CR0032388","SUSPICIOUS ACTIVITY","SUSPICIOUS ACTIVITY","10 BLK E MERCURY ST","",""
"12/17/2017","02:05","217CR0032389","DISTURBANCE","DISTURBANCE","1 W PARK","",""
"12/17/2017","02:07","217CR0032390","ALARM-DURESS","ALARM-DURESS","************","",""
"12/17/2017","03:46","217CR0032391","MEDICAL - EMERGENCY","MEDICAL - EMERGENCY","1626 LOWELL # 3","",""
"12/17/2017","03:52","217CR0032392","ANIMAL COMPLAINT","ANIMAL COMPLAINT","2740 KOSSUTH","",""
"12/17/2017","05:02","217CR0032393","ATL","ATL","2316 PINE","",""
"12/17/2017","06:02","217CR0032394","UNWANTED PERSON","UNWANTED PERSON","************","",""
"12/17/2017","06:09","217CR0032395","MEDICAL - EMERGENCY","MEDICAL - EMERGENCY","1028 S UTAH","",""
"12/17/2017","06:47","217CR0032396","SUSPICIOUS ACTIVITY","SUSPICIOUS ACTIVITY","700 BLK S WYOMING","",""
"12/17/2017","07:43","217CR0032397","DRUGS","DRUGS","************","",""
"12/17/2017","09:18","217CR0032398","UNWANTED PERSON","UNWANTED PERSON","************","",""
"12/17/2017","10:06","217CR0032399","BURGLARY","BURGLARY, RESIDENCE","78 MEADOW GULCH","",""
"12/17/2017","10:35","217CR0032400","ALARM - BURGLARY","ALARM - BURGLARY","************","",""
"12/17/2017","11:15","217CR0032401","ALL OTHER","ALL OTHER","I15 MP 132 SB","",""
"12/17/2017","11:23","217CR0032402","ALARM - BURGLARY","ALARM - BURGLARY","************","",""
"12/17/2017","11:25","217CR0032403","ALARM - BURGLARY","ALARM - BURGLARY","************","",""
"12/17/2017","11:28","217CR0032404","ALARM - BURGLARY","ALARM - BURGLARY","************","",""
"12/17/2017","11:32","217CR0032405","ALL OTHER","ALL OTHER","BUTTE","",""
"12/17/2017","11:37","217CR0032406","ALARM - BURGLARY","ALARM - BURGLARY","************","",""
"12/17/2017","11:39","217CR0032407","MEDICAL - EMERGENCY","MEDICAL - EMERGENCY","212 SILVER BOW HOMES","",""
"12/17/2017","11:44","217CR0032408","HIT AND RUN","HIT AND RUN","2401 CONTINENTAL DR","",""
"12/17/2017","11:49","217CR0032409","WELFARE CHECK","WELFARE CHECK","122 GARDEN WY","",""
"12/17/2017","12:00","217CR0032410","T/S","T/S @ ","","",""
"12/17/2017","12:10","217CR0032411","VANDALISM/CRIMINAL MISCHIEF","VANDALISM/CRIMINAL MISCHIEF","724 MARYLAND","",""
"12/17/2017","12:15","217CR0032412","FIRE - STRUCTURE","FIRE - STRUCTURE","3927 SEVEN SPRINGS","",""
"12/17/2017","12:55","217CR0032413","ALARM - BURGLARY","ALARM - BURGLARY","************","",""
"12/17/2017","13:37","217CR0032414","DETENTION BUSINESS","DETENTION BUSINESS","************","",""
"12/17/2017","13:41","217CR0032415","T/S","T/S","WASHINGTON AND ALUMINUM","",""
"12/17/2017","14:03","217CR0032416","SUSPICIOUS ACTIVITY","SUSPICIOUS ACTIVITY","3001 HARRISON AVE","",""
"12/17/2017","14:05","217CR0032417","DISTURBANCE-NOISE","DISTURBANCE-NOISE","665 S WASHINGTON ST","",""
"12/17/2017","14:06","217CR0032418","DISTURBANCE","DISTURBANCE","1053 S COLORADO","",""
"12/17/2017","14:14","217CR0032419","UNWANTED PERSON","UNWANTED PERSON","************","",""
"12/17/2017","14:36","217CR0032420","THEFT","THEFT, SHOPLIFT","3901 HARRISON AVE","ARREST(s) MADE",""
"12/17/2017","14:37","217CR0032421","ALARM - FIRE","ALARM - FIRE","400 S CLARK","",""
"12/17/2017","15:10","217CR0032423","ALL OTHER","CRIMINAL TRESPASS TO PROPERTY","3901 HARRISON AVE","ARREST(s) MADE",""
"12/17/2017","15:10","217CR0032422","T/S","T/S","SILVER ST AND IDAHO ST","",""
"12/17/2017","15:36","217CR0032424","MEDICAL - EMERGENCY","MEDICAL - EMERGENCY","3033 BUSCH #27","",""
"12/17/2017","15:52","217CR0032425","T/S","CRIMINAL CONTEMPT","GALENA ST AND IDAHO ST","",""
"12/17/2017","16:01","217CR0032426","SUICIDE ATTEMPT/THREAT","SUICIDE ATTEMPT/THREAT","************","",""
"12/17/2017","16:08","217CR0032427","T/S","T/S","PLATINUM AND MONTANA","",""
"12/17/2017","16:17","217CR0032428","UNWANTED PERSON","UNWANTED PERSON","************","",""
"12/17/2017","16:23","217CR0032429","T/S","T/S","GRANITE ST AND EXCELSIOR AVE","",""
"12/17/2017","16:26","217CR0032430","VANDALISM/CRIMINAL MISCHIEF","VANDALISM/CRIMINAL MISCHIEF","1265 FARRELL ST","",""
"12/17/2017","16:28","217CR0032431","WELFARE CHECK","WELFARE CHECK","180 TRINITY LOOP","",""
"12/17/2017","17:01","217CR0032432","CIVIL PAPER SERVICE","CIVIL PAPER SERVICE","2971 TEAL APT #11","",""
"12/17/2017","17:03","217CR0032433","T/S","T/S","GREENWOOD ST AND ROWE RD","",""
"12/17/2017","17:14","217CR0032434","UNWANTED PERSON","UNWANTED PERSON","************","",""
"12/17/2017","17:35","217CR0032435","SUSPICIOUS ACTIVITY","SUSPICIOUS ACTIVITY","BROADWAY AND IDAHO","",""
"12/17/2017","17:35","217CR0032436","T/S","T/S","PLATINUM AND MONTANA","",""
"12/17/2017","17:41","217CR0032437","FIRE - OTHER","FIRE - OTHER","5 E MERCURY ST","",""
"12/17/2017","17:52","217CR0032438","THEFT","THEFT","3901 HARRISON AVE","",""
"12/17/2017","17:58","217CR0032439","UNWANTED PERSON","UNWANTED PERSON","************","",""
"12/17/2017","18:05","217CR0032440","BUSINESS CHECK","BUSINESS CHECK","1370 HARRISON","",""
"12/17/2017","18:12","217CR0032441","ALARM - BURGLARY","ALARM - BURGLARY","************","",""
"12/17/2017","18:32","217CR0032443","DISTURBANCE","DISTURBANCE","207 W PARK ST #26","",""
"12/17/2017","18:32","217CR0032442","T/S","T/S @ CORNELL AND FARRAGUT","CORNELL AND FARRAGUT","",""
"12/17/2017","18:40","217CR0032444","VANDALISM/CRIMINAL MISCHIEF","CRIMINAL MISCHIEF","305 W MERCURY","",""
"12/17/2017","19:01","217CR0032445","ASSIST OTHER AGENCY","ASSIST OTHER AGENCY","","",""
"12/17/2017","19:11","217CR0032446","ASSIST OTHER AGENCY","ASSIST OTHER AGENCY","I90 EB MM 228","",""
"12/17/2017","19:29","217CR0032447","DISTURBANCE","DISTURBANCE","901 S WASHINGTON #33","",""
"12/17/2017","19:48","217CR0032448","ALL OTHER","ALL OTHER","1805 FLORIDA AVE","",""
"12/17/2017","19:52","217CR0032449","VANDALISM/CRIMINAL MISCHIEF","VANDALISM/CRIMINAL MISCHIEF","1406 NORTH B STREET","",""
"12/17/2017","20:07","217CR0032450","MISSING PERSON","MISSING PERSON","************","",""
"12/17/2017","20:32","217CR0032451","UNWANTED PERSON","UNWANTED PERSON","************","",""
"12/17/2017","20:50","217CR0032452","BURGLARY","BURGLARY","1102 S WYOMING","",""
"12/17/2017","20:54","217CR0032453","T/S","T/S @ ","","",""
"12/17/2017","21:00","217CR0032454","ASSIST OTHER AGENCY","ASSIST OTHER AGENCY","I15 MM122 NBND","",""
"12/17/2017","21:01","217CR0032455","SUICIDE ATTEMPT/THREAT","SUICIDE ATTEMPT/THREAT","************","",""
"12/17/2017","21:03","217CR0032456","ASSIST OTHER AGENCY","ASSIST OTHER AGENCY","I90 MM 218 EB","",""
"12/17/2017","21:21","217CR0032457","THEFT","THEFT","1125 S MAIN ST","",""
"12/17/2017","21:23","217CR0032458","CITIZEN AID","CITIZEN AID","350 S MONTANA SUBWAY SANDS","",""
"12/17/2017","21:25","217CR0032459","WELFARE CHECK","WELFARE CHECK","1053 S COLORADO","",""
"12/17/2017","21:26","217CR0032460","UNKNOWN PROBLEM","UNKNOWN PROBLEM","3901 HARRISON AVE","",""
"12/17/2017","21:41","217CR0032461","ALL OTHER","ALL OTHER","222 E PARK","",""
"12/17/2017","23:09","217CR0032462","CIVIL PAPER SERVICE","CIVIL PAPER SERVICE","155 W QUARTZ BSB DETENTION CEN","",""
"12/18/2017","00:10","217CR0032463","PROWLER","PROWLER","734 W PARK","",""
"12/18/2017","00:31","217CR0032464","T/S","DRIVE WHILE SUSP. OR REVOKED","CASEY AND KAW","",""
"12/18/2017","00:39","217CR0032465","T/S","CRIMINAL CONTEMPT","COBBAN AND MONROE","ARREST(s) MADE",""
"12/18/2017","01:29","217CR0032466","PROWLER","PROWLER","1515 OREGON #802","",""
"12/18/2017","01:40","217CR0032467","MAN WITH A GUN","CRIMINAL MISCHIEF","303 W QUARTZ","",""
"12/18/2017","02:06","217CR0032468","THEFT","THEFT, ALL OTHERS","3390 QUICY","",""
"12/18/2017","02:25","217CR0032469","VANDALISM/CRIMINAL MISCHIEF","VANDALISM/CRIMINAL MISCHIEF","921 W BROADWAY","",""
"12/18/2017","02:40","217CR0032470","MEDICAL - EMERGENCY","MEDICAL - EMERGENCY","1522 ELM","",""
"12/18/2017","03:03","217CR0032471","CIVIL PAPER SERVICE","CIVIL PAPER SERVICE","155 W QUARTZ BSB DETENTION CTR","",""
"12/18/2017","03:52","217CR0032472","DISTURBANCE-NOISE","DISTURBANCE-NOISE","305 N WASHINGTON","",""
"12/18/2017","04:28","217CR0032473","DISTURBANCE","DISTURBANCE","307 1/2 N WASHINGTON","",""
"12/18/2017","04:30","217CR0032474","ANIMAL COMPLAINT","ANIMAL COMPLAINT","3519 GAYLORD","",""
"12/18/2017","05:34","217CR0032475","MEDICAL - EMERGENCY","MEDICAL - EMERGENCY","3300 WHARTON","",""
"12/18/2017","06:52","217CR0032476","HIT AND RUN","HIT AND RUN","GRAND AND HARRISON","",""
"12/18/2017","07:00","217CR0032477","SUSPICIOUS ACTIVITY","SUSPICIOUS ACTIVITY","55 E GRANITE ST","",""
"12/18/2017","07:17","217CR0032478","T/S","T/S @ MONTANA ST AND CHULA","MONTANA ST AND CHULA","",""
 
Tuesday the 21st. Affiliate Marketing.
Copyright 2012

©